Regional Weather Roundup
Issued by NWS Newport/Morehead, NC

Current Version | Previous Version | Graphics & Text | Print | Product List | Glossary Off
Versions: 1 2 3 4 5 6 7 8 9 10 11 12 13 14 15 16 17 18 19 20 21 22 23 24 25 26 27 28 29 30 31 32 33 34 35 36 37 38 39 40 41 42 43 44 45 46 47 48 49 50

000
ASUS42 KMHX 231314
RWRMHX
WEATHER ROUNDUP FOR EASTERN NORTH CAROLINA
NATIONAL WEATHER SERVICE NEWPORT/MOREHEAD CITY NC
900 AM EDT WED AUG 23 2017

NOTE: "FAIR" INDICATES FEW OR NO CLOUDS BELOW 12,000 FEET
WITH NO SIGNIFICANT WEATHER AND/OR OBSTRUCTIONS TO VISIBILITY

NCZ015>017-031-032-045>047-102-103-231400-
NORTH COAST

CITY           SKY/WX    TMP DP  RH WIND       PRES   REMARKS
EDENTON        MOSUNNY   82  76  83 CALM      29.88F
ELIZABETH CITY SUNNY     82  77  84 SW12      29.87F
KITTY HAWK     SUNNY     81  74  78 CALM      29.87S
MANTEO         SUNNY     81  74  80 W10       29.89S

$$

NCZ045>047-081-094-103-104-231400-
CENTRAL COAST

CITY           SKY/WX    TMP DP  RH WIND       PRES   REMARKS
FRISCO         SUNNY     84  78  82 SW8       29.91S

$$

NCZ095-097-098-100-101-231400-
SOUTHERN COAST

CITY           SKY/WX    TMP DP  RH WIND       PRES   REMARKS
BEAUFORT       MOSUNNY   82  77  84 SW9       29.91F
CEDAR ISLAND   NOT AVBL
JACKSONVILLE   MOSUNNY   81  77  88 SW7       29.90F
PINEY ISLAND   MOSUNNY  N/A N/A N/A SW12      29.90F
WILMINGTON     MOSUNNY   80  75  84 SW6       29.92S


$$

NCZ011>013-027>030-043-044-078>080-089-090>093-098-231400-
COASTAL PLAIN

CITY           SKY/WX    TMP DP  RH WIND       PRES   REMARKS
AHOSKIE          N/A     78  75  91 CALM      29.87F
CLINTON        PTSUNNY   78  76  95 SW5       29.91S
ELIZABETHTOWN  NOT AVBL
GOLDSBORO      PTSUNNY   79  79 100 NW6       29.88F
GREENVILLE     CLOUDY    79  75  89 SW8       29.91S
HAVELOCK       MOSUNNY   82  75  79 SW9       29.91F
KENANSVILLE    PTSUNNY   79  75  89 SW7       29.91S
KINSTON        CLOUDY    81  75  83 SW7       29.90F
NEW BERN       SUNNY     81  76  84 SW8       29.91F
RICHLANDS      SUNNY     81  76  84 SW7       29.91F
ROCKY MOUNT    MOSUNNY   80  76  87 SW7       29.88F
WASHINGTON     SUNNY     79  74  85 SW8       29.89F
WHITEVILLE     MOSUNNY   80  75  84 SW7       29.92S

$$

AMZ130-135-150-152-154-156-158-170-250-252-270-ANZ085-086-088-633-658-670-231400-
MARINE OBSERVATIONS

STATION/POSITION TIME  TEMP    WIND        PRES    WAVE   SWELL
                       AIR SEA DIR/SP/G            HT/PER HT/PER
                 (UTC) (F)     (DEG/KT/KT) (MB)    (FT/S) (FT/S)
CHESAPEAKE LIGHT NOT AVBL
64 E VA BEACH    1250   79 78  240/ 14/ 16 1011.7    5/10   3/10
DUCK             1242   80 66  230/ 12/ 16 1011.3
2 E DUCK         1230      69                N/A     2/ 9   2/11
OREGON INLET     1242   81 83  220/ 13/ 17 1011.8
13E OREGON INLT  1248      79                N/A     3/ 9   3/ 9
HATTERAS CG      1242   82 83  230/  8/ 12 1012.7
DIAMOND BUOY     1250   83 84  250/ 16/ 17 1012.5    4/ 5   2/ 9
CAPE LOOKOUT     1300   80     220/  8/ 11 1012.8
BEAUFORT LAB     1242   82 80  240/  5/  9 1012.3
30 SE NEW RVR IN 1208   74 83  260/ 14/ 19 1013.7
30 SE NEW RVR IN 1243      83                N/A     5/ 9   2/11
27 SE WRIGHTSVLE 1208   79 83  230/ 12/ 17 1013.3
5 SE WRIGHTSVLE  1208   81 84  240/ 12/ 16 1013.0
225 S CAPE HAT   1250   83 84  260/  6/  8 1015.1    3/ 8   3/ 8
41 SE CHARLESTON 1250   82 84  220/ 14/ 17 1013.6    5/ 8   3/ 8

$$




USA.gov is the U.S. government's official web portal to all federal, state and local government web resources and services.